Tracking 31027 objects as of 19-Jul-2025
HD Live streaming from Space Station
objects crossing your sky now

USA 445

Track USA 445 now!
10-day predictions


NORAD ID: 62344
Int'l Code: 2024-243E
Perigee: 576.5 km
Apogee: 591.9 km
Inclination: 70.0 °
Period: 96.2 minutes
Semi major axis: 6955 km
RCS: Unknown
Launch date: December 17, 2024
Source: United States (US)
Launch site: AIR FORCE WESTERN TEST RANGE (AFWTR)
Your satellite tracking list
SUPERVIEW-1 03
Track 1 satellite(s)




NASA's NSSDC Master Catalog

Two Line Element Set (TLE):
1 62344U 24243E   25180.90576552 0.00000000  00000-0  00000-0 0    02
2 62344  69.9915 102.6583 0011128 253.3309 106.6691 14.96715786    06
Source of the keplerian elements: McCants